Kenai, AK

5:46 AM AKDT on September 22, 2017 (GMT -0800)
Kenai Municipal

Weather History for PAEN - January, 2013

Change the Weather History Date:

Friday, January 25, 2013

  Actual Average Record
Temperature  
Mean Temperature 18 °F -  
Max Temperature 35 °F 20 °F 42 °F (1961)
Min Temperature -4 °F 4 °F -44 °F (1973)
Degree Days  
Heating Degree Days 48    
Moisture  
Dew Point 14 °F    
Average Humidity 75    
Maximum Humidity 93    
Minimum Humidity 50    
Precipitation  
Precipitation 0.00 in - - ()
Sea Level Pressure  
Sea Level Pressure 29.47 in    
Wind  
Wind Speed 18 mph (East)    
Max Wind Speed 30 mph    
Max Gust Speed 37 mph    
Visibility 10 miles    
Events      
Averages and records for this station are not official NWS values.
T = Trace of Precipitation, MM = Missing Value Source: NWS Daily Summary

Daily Weather History Graph

Daily Weather History Graph

Search for Another Location

Airport or City:

Trip Planner

Search our weather history database for the weather conditions in past years. The results will help you decide how hot, cold, wet, or windy it might be!

Date:

Astronomy

Jan. 25, 2013 Rise Set
Actual Time 9:36 AM AKST 4:58 PM AKST
Civil Twilight 8:46 AM AKST 5:49 PM AKST
Nautical Twilight 7:53 AM AKST 6:42 PM AKST
Astronomical Twilight 7:03 AM AKST 7:32 PM AKST
Moon 4:08 PM AKST (1/25) 8:24 AM AKST (1/25)
Length of Visible Light 9h 03m
Length of Day
7h 22m
Waxing Gibbous, 98% of the Moon is Illuminated
Jan 25
Waxing Gibbous
Jan 26
Full
Feb 3
Last Quarter
Feb 9
New
Feb 17
First Quarter

Hourly Weather History & Observations

Time (AKST) Temp. Windchill Dew Point Humidity Pressure Visibility Wind Dir Wind Speed Gust Speed Precip Events Conditions
12:29 AM 35.6 °F 23.4 °F 32.0 °F 87% 29.36 in 10.0 mi South 25.3 mph 34.5 mph N/A   Overcast
12:53 AM 35.1 °F 21.8 °F 32.0 °F 89% 29.36 in 10.0 mi South 29.9 mph 35.7 mph N/A   Mostly Cloudy
1:03 AM 35.6 °F 22.7 °F 32.0 °F 87% 29.35 in 10.0 mi South 28.8 mph 36.8 mph N/A   Scattered Clouds
1:53 AM 34.0 °F 21.8 °F 30.9 °F 89% 29.36 in 10.0 mi South 23.0 mph 32.2 mph N/A   Scattered Clouds
3:53 AM 33.1 °F 20.3 °F 30.0 °F 89% 29.33 in 10.0 mi South 24.2 mph 31.1 mph N/A   Clear
4:53 AM 32.0 °F 20.5 °F 28.9 °F 88% 29.33 in 10.0 mi SSW 18.4 mph - N/A   Clear
5:53 AM 32.0 °F 20.5 °F 28.0 °F 85% 29.33 in 10.0 mi SSW 18.4 mph - N/A   Clear
6:22 AM 32.0 °F 20.8 °F 28.4 °F 87% 29.33 in 10.0 mi SSW 17.3 mph - N/A   Mostly Cloudy
6:30 AM 30.2 °F 18.9 °F 28.4 °F 93% 29.33 in 10.0 mi SSW 16.1 mph - N/A   Mostly Cloudy
6:46 AM 30.2 °F 19.3 °F 26.6 °F 86% 29.33 in 10.0 mi South 15.0 mph - N/A   Mostly Cloudy
6:53 AM 30.0 °F 21.1 °F 27.0 °F 88% 29.34 in 10.0 mi SSW 10.4 mph - N/A   Mostly Cloudy
7:05 AM 30.2 °F 21.3 °F 26.6 °F 86% 29.35 in 10.0 mi East 10.4 mph - N/A   Mostly Cloudy
7:28 AM 24.8 °F 8.4 °F 19.4 °F 80% 29.36 in 10.0 mi NE 27.6 mph 33.4 mph N/A   Overcast
7:53 AM 23.0 °F 5.7 °F 17.1 °F 78% 29.39 in 10.0 mi NE 28.8 mph - N/A   Overcast
8:53 AM 21.9 °F 8.7 °F 16.0 °F 78% 29.43 in 10.0 mi ENE 15.0 mph - N/A   Overcast
9:53 AM 21.9 °F 9.8 °F 10.0 °F 60% 29.46 in 10.0 mi ENE 12.7 mph - N/A   Overcast
10:53 AM 21.0 °F 8.6 °F 12.0 °F 68% 29.49 in 10.0 mi ENE 12.7 mph - N/A   Overcast
11:53 AM 19.9 °F 10.1 °F 8.1 °F 60% 29.51 in 10.0 mi NE 8.1 mph - N/A   Scattered Clouds
12:53 PM 19.9 °F 9.3 °F 5.0 °F 52% 29.52 in 10.0 mi ENE 9.2 mph - N/A   Clear
1:53 PM 19.9 °F 6.2 °F 3.9 °F 50% 29.54 in 10.0 mi NE 15.0 mph - N/A   Clear
2:53 PM 19.0 °F 8.2 °F 5.0 °F 54% 29.55 in 10.0 mi NE 9.2 mph - N/A   Clear
3:53 PM 19.0 °F 9.0 °F 3.9 °F 52% 29.57 in 10.0 mi NE 8.1 mph - N/A   Clear
4:53 PM 12.9 °F 3.8 °F 1.9 °F 62% 29.59 in 10.0 mi NNE 5.8 mph - N/A   Clear
5:53 PM 12.0 °F 5.9 °F -0.9 °F 56% 29.61 in 10.0 mi NE 3.5 mph - N/A   Clear
6:53 PM 8.1 °F - -0.0 °F 70% 29.62 in 10.0 mi Calm Calm - N/A   Clear
7:53 PM 6.1 °F -5.6 °F -4.0 °F 63% 29.63 in 10.0 mi NE 6.9 mph - N/A   Clear
8:53 PM 1.9 °F - -2.9 °F 80% 29.65 in 10.0 mi Calm Calm - N/A   Clear
9:53 PM -0.9 °F -8.9 °F -7.1 °F 75% 29.65 in 10.0 mi North 3.5 mph - N/A   Clear
10:53 PM -0.9 °F - -6.0 °F 79% 29.67 in 10.0 mi Calm Calm - N/A   Clear
11:53 PM -4.0 °F - -8.0 °F 83% 29.68 in 10.0 mi Calm Calm - N/A   Clear